Bad Kleinkirchheim, Austria 16 day weather forecast

Slopes altitude range 1090 m - 2055m

Number of lifts: 25 Pistes: 103km

In some cases the lift and piste totals shown are for the ski domain (e.g. Three Valleys) rather than individual resort (e.g. Courchevel)

Overview

The 16 day weather forecast is fully updated 4 times every day.

    • Thu 21 FEB 2019
    • Thu 21
    • 0C 4C
    • Fri 22 FEB 2019
    • Fri 22
    • -1C 3C
    • Sat 23 FEB 2019
    • Sat 23
    • -8C 0C
    • Sun 24 FEB 2019
    • Sun 24
    • -6C 3C
    • Mon 25 FEB 2019
    • Mon 25
    • -4C 6C
    • Tue 26 FEB 2019
    • Tue 26
    • -2C 7C
    • Wed 27 FEB 2019
    • Wed 27
    • 0C 8C
    • Thu 28 FEB 2019
    • Thu 28
    • 0C 11C
    • Fri 01 MAR 2019
    • Fri 01
    • -1C 9C
    • Sat 02 MAR 2019
    • Sat 02
    • -1C 7C
    • Sun 03 MAR 2019
    • Sun 03
    • -1C 3C
    • Mon 04 MAR 2019
    • Mon 04
    • -1C 7C
    • Tue 05 MAR 2019
    • Tue 05
    • 1C 4C
    • Wed 06 MAR 2019
    • Wed 06
    • 1C 5C
    • Thu 07 MAR 2019
    • Thu 07
    • -4C -2C
    • Fri 08 MAR 2019
    • Fri 08
    • -9C -4C

Date:

Time Type 0°C level Temp Chill Snow Cloud Speed Gust Dir Press
18:00 1685m 4°C 4_5 0cm 97% 5mph 5mph 1028mB
21:00 1227m -2°C -2_5 0cm 100% 5mph 6mph 1028mB
0:00 1220m -2°C -2_5 0cm 67% 5mph 6mph 1028mB
3:00 1465m -2°C -2_5 1cm 74% 5mph 8mph 1027mB
6:00 1436m -2°C -2_6 1cm 84% 6mph 9mph 1027mB
9:00 1601m -1°C -1_7 1cm 96% 7mph 20mph 1027mB
12:00 1768m 3°C 3_8 1cm 93% 8mph 19mph 1028mB
15:00 1748m 3°C 3_8 0cm 33% 8mph 22mph 1029mB
18:00 1470m 3°C 3_7 0cm 29% 7mph 17mph 1033mB
21:00 1213m -2°C -2_6 0cm 47% 6mph 12mph 1036mB
0:00 1006m -3°C -3_6 0cm 50% 6mph 12mph 1038mB
3:00 581m -6°C -6_6 0cm 24% 6mph 9mph 1038mB
6:00 328m -8°C -8_6 0cm 13% 6mph 9mph 1039mB
9:00 1141m -8°C -8_6 0cm 0% 6mph 11mph 1038mB
12:00 1480m 0°C 0_7 0cm 0% 7mph 12mph 1037mB
15:00 1381m 1°C 1_5 0cm 0% 5mph 10mph 1036mB
18:00 567m 1°C 1_5 0cm 0% 5mph 7mph 1039mB
21:00 457m -7°C -7_5 0cm 16% 5mph 5mph 1040mB
0:00 465m -7°C -7_4 0cm 8% 4mph 5mph 1040mB
3:00 485m -7°C -7_4 0cm 3% 4mph 5mph 1039mB
6:00 503m -7°C -7_5 0cm 7% 5mph 6mph 1039mB
9:00 1492m -6°C -6_4 0cm 0% 4mph 7mph 1038mB
12:00 1789m 3°C 3_5 0cm 19% 5mph 9mph 1036mB
15:00 1753m 4°C 4_6 0cm 18% 6mph 11mph 1035mB
18:00 1114m 4°C 4_6 0cm 27% 6mph 10mph 1038mB
21:00 991m -3°C -3_6 0cm 28% 6mph 9mph 1039mB
0:00 980m -4°C -4_6 0cm 29% 6mph 9mph 1040mB
3:00 978m -3°C -3_5 0cm 74% 5mph 6mph 1040mB
6:00 916m -4°C -4_4 0cm 46% 4mph 5mph 1041mB
9:00 1696m -4°C -4_2 0cm 3% 2mph 4mph 1040mB
12:00 2034m 6°C 6_2 0cm 2% 2mph 3mph 1037mB
15:00 2204m 6°C 6_2 0cm 1% 2mph 3mph 1036mB
18:00 1848m 6°C 6_5 0cm 2% 5mph 6mph 1037mB
21:00 1334m -1°C -1_5 0cm 68% 5mph 6mph 1037mB
0:00 1285m -1°C -1_5 0cm 76% 5mph 6mph 1036mB
3:00 1225m -2°C -2_6 0cm 17% 6mph 7mph 1035mB
6:00 1204m -2°C -2_6 0cm 41% 6mph 7mph 1035mB
9:00 2711m -2°C -2_6 0cm 68% 6mph 10mph 1033mB
12:00 2836m 7°C 7_5 0cm 53% 5mph 10mph 1031mB
15:00 2905m 7°C 7_6 0cm 36% 6mph 10mph 1029mB
18:00 2170m 7°C 7_6 0cm 41% 6mph 7mph 1031mB
21:00 2145m 0°C 0_6 0cm 44% 6mph 7mph 1031mB
0:00 2107m 0°C 0_7 0cm 26% 7mph 7mph 1030mB
3:00 1585m 0°C 0_7 0cm 7% 7mph 7mph 1029mB
6:00 1860m -1°C -1_6 0cm 8% 6mph 7mph 1029mB
9:00 2668m 0°C 0_6 0cm 14% 6mph 10mph 1028mB
12:00 2599m 8°C 8_3 0cm 8% 3mph 6mph 1026mB
15:00 2733m 8°C 8_2 0cm 2% 2mph 4mph 1025mB
18:00 2974m 8°C 8_4 0cm 2% 4mph 5mph 1027mB
21:00 3123m 1°C 1_3 0cm 0% 3mph 3mph 1026mB
0:00 3205m 1°C 1_3 0cm 0% 3mph 3mph 1025mB
3:00 2960m 0°C 0_3 0cm 0% 3mph 4mph 1024mB
6:00 2912m 0°C 0_5 0cm 2% 5mph 6mph 1024mB
9:00 3115m 0°C 0_3 0cm 29% 3mph 5mph 1022mB
12:00 3100m 11°C 11_3 0cm 18% 3mph 5mph 1020mB
15:00 3009m 11°C 11_3 0cm 0% 3mph 5mph 1019mB
18:00 2881m 11°C 11_5 0cm 6% 5mph 7mph 1021mB
21:00 2322m 1°C 1_6 0cm 9% 6mph 7mph 1023mB
0:00 2064m 0°C 0_6 0cm 15% 6mph 7mph 1023mB
3:00 1372m -1°C -1_6 0cm 13% 6mph 7mph 1023mB
6:00 1307m -1°C -1_5 0cm 20% 5mph 6mph 1024mB
9:00 2442m -1°C -1_4 0cm 100% 4mph 6mph 1024mB
12:00 2336m 9°C 9_1 0cm 99% 1mph 1mph 1022mB
15:00 2333m 9°C 9_1 0cm 98% 1mph 2mph 1020mB
18:00 2299m 9°C 9_3 0cm 99% 3mph 4mph 1022mB
21:00 1900m 0°C 0_4 0cm 68% 4mph 5mph 1023mB
0:00 1832m 0°C 0_4 0cm 54% 4mph 5mph 1024mB
3:00 1373m -1°C -1_4 0cm 49% 4mph 5mph 1022mB
6:00 1345m -1°C -1_3 0cm 60% 3mph 3mph 1022mB
9:00 1991m -1°C -1_4 0cm 90% 4mph 6mph 1020mB
12:00 2096m 7°C 7_5 0cm 90% 5mph 7mph 1017mB
15:00 2184m 8°C 8_4 0cm 82% 4mph 6mph 1015mB
18:00 2309m 8°C 8_4 0cm 91% 4mph 4mph 1016mB
21:00 2034m 0°C 0_4 0cm 63% 4mph 5mph 1014mB
0:00 1992m 0°C 0_5 0cm 81% 5mph 7mph 1012mB
3:00 1560m 0°C 0_6 0cm 100% 6mph 10mph 1013mB
6:00 1364m -1°C -1_5 1cm 98% 5mph 31mph 1016mB
9:00 1662m -1°C -1_16 0cm 37% 16mph 38mph 1016mB
12:00 1693m 3°C 3_17 0cm 19% 17mph 36mph 1016mB
Morning 0mm 0 1088m -2°C -2_5 0cm 9% 5mph 7mph 1023mB
Afternoon 0mm 0 2542m 7°C 7_9 0cm 96% 9mph 14mph 1016mB
Morning 0mm 0 2001m 2°C 2_6 0cm 94% 6mph 12mph 1011mB
Afternoon 0.453125mm 0 1814m 4°C 4_4 0cm 90% 4mph 8mph 1010mB
Morning 0.671875mm 0.125 1813m 2°C 2_4 0cm 93% 4mph 5mph 1006mB
Afternoon 0.78125mm 0.5625 1702m 5°C 5_5 6cm 93% 5mph 9mph 1006mB
Morning 0.078125mm 0.25 1012m -2°C -2_7 2cm 74% 7mph 14mph 1012mB
Afternoon 0.140625mm 0.0625 1048m -2°C -2_7 1cm 100% 7mph 12mph 1017mB
Morning 0.078125mm 0.5625 45m -9°C -9_7 4cm 59% 7mph 16mph 1026mB
Afternoon 0.0833333mm 0.75 729m -4°C -4_12 6cm 68% 12mph 22mph 1030mB
Morning 0.046875mm 0.4375 0m -10°C -10_6 4cm 56% 6mph 11mph 1038mB
Afternoon 0mm 0 1349m 1°C 1_5 0cm 16% 5mph 6mph 1031mB

16 day outlook at a glance

Forecast issued: 21/02/2019 18:10:41

Chat

Your comments and questions. In a resort? Let us know what it's like!


Characters left 250

For terms and conditions see Readers Comments on the Cookie and privacy policy page.